Location: Kruen
(47.5000°N, 11.5000°E)
Time: 22:31:30
(UTC+01:00)

ISS - Pass Details

Date: 29 September 2020
Orbit: 417 x 420 km, 51.6° (Epoch: 27 October)

Event Time Altitude Azimuth Distance (km) Brightness Sun altitude
Rises 21:04:39 0° 293° (WNW) 2,368 1.6 -22.0°
Reaches altitude 10° 21:06:45 10° 296° (WNW) 1,503 0.2 -22.4°
Enters shadow 21:09:24 50° 311° (NW) 540 -2.9 -22.8°
